Weather reports worldwide

Advertisment
Helgoland, Germany (10015): temperature & dewpoint: 10.08.2018 13:00:00 - 16.08.2018 13:00:00 (CEST)Helgoland, Germany (10015): temperature 5cm: 10.08.2018 13:00:00 - 16.08.2018 13:00:00 (CEST)Helgoland, Germany (10015): wind speed & gusts: 10.08.2018 13:00:00 - 16.08.2018 13:00:00 (CEST)Helgoland, Germany (10015): wind direction: 10.08.2018 13:00:00 - 16.08.2018 13:00:00 (CEST)Helgoland, Germany (10015): reduced air pressure: 10.08.2018 13:00:00 - 16.08.2018 13:00:00 (CEST)Helgoland, Germany (10015): visibility: 10.08.2018 13:00:00 - 16.08.2018 13:00:00 (CEST)Helgoland, Germany (10015): sunshine duration: 10.08.2018 13:00:00 - 16.08.2018 13:00:00 (CEST)Helgoland, Germany (10015): precipitation: 10.08.2018 13:00:00 - 16.08.2018 13:00:00 (CEST)
Date & Time tt [°C] td [°C] tt 5cm [°C] ff [km/h] ff [kn] fx [km/h] fx [kn] dd ppp [hPa] vv [km] sd [min] rr [mm]
16.08.2018 13:00:00 20,1 15,5 22,3 31 17 41 22 SSW 1014,1 22 25 0,0
16.08.2018 12:00:00 19,9 15,6 23,8 36 20 43 23 S 1014,0 18 46 0,0
16.08.2018 11:00:00 19,0 15,1 22,3 37 20 43 23 SSW 1014,1 15 60 0,0
16.08.2018 10:00:00 18,6 15,2 21,1 36 19 42 23 SSW 1014,1 15 55 0,0
16.08.2018 09:00:00 18,7 15,5 19,9 34 18 41 22 S 1014,2 14 35 0,0
16.08.2018 08:00:00 18,6 15,6 18,6 32 17 38 20 S 1014,7 13 0 0,0
16.08.2018 07:00:00 18,8 16,0 18,5 31 17 38 21 S 1014,8 11 0 0,0
16.08.2018 06:00:00 19,0 16,1 18,6 32 17 38 20 S 1014,8 10 0 0,0
16.08.2018 05:00:00 18,9 16,3 18,5 32 17 40 22 S 1015,2 9 0 0,0
16.08.2018 04:00:00 18,9 16,2 18,3 29 16 35 19 S 1015,5 12 0 0,0
16.08.2018 03:00:00 19,1 16,3 18,4 26 14 30 16 SSW 1015,9 12 0 0,0
16.08.2018 02:00:00 19,0 16,4 17,7 22 12 27 15 SSW 1016,4 16 0 0,0
16.08.2018 01:00:00 19,4 16,8 18,9 19 10 25 14 SW 1016,7 17 0 0,0
16.08.2018 00:00:00 19,3 17,3 18,8 15 8 17 9 SSW 1016,7 18 0 0,0
15.08.2018 23:00:00 19,3 17,5 18,8 12 6 19 11 SW 1016,9 18 0 0,0
15.08.2018 22:00:00 19,1 17,7 18,8 13 7 18 10 SSW 1017,1 13 0 0,0
15.08.2018 21:00:00 19,6 17,6 19,6 12 7 17 9 WSW 1016,9 22 0 0,0
15.08.2018 20:00:00 20,1 17,2 20,4 10 6 14 7 SW 1016,7 33 0 0,0
15.08.2018 19:00:00 20,1 17,0 21,0 11 6 14 8 SSW 1016,8 33 2 0,0
15.08.2018 18:00:00 20,9 17,4 23,8 9 5 11 6 SSW 1017,0 29 44 0,0
15.08.2018 17:00:00 20,6 17,5 24,6 9 5 16 9 SW 1017,0 27 60 0,0
15.08.2018 16:00:00 20,5 17,4 26,2 15 8 19 10 WSW 1017,1 27 60 0,0
15.08.2018 15:00:00 20,2 17,9 25,8 17 9 21 12 WSW 1017,1 17 42 0,0
15.08.2018 14:00:00 20,0 17,4 25,8 16 8 23 13 WSW 1016,9 23 26 0,0
15.08.2018 13:00:00 19,6 17,7 21,7 17 9 28 15 WSW 1016,8 13 5 0,0
15.08.2018 12:00:00 19,4 17,5 21,0 26 14 37 20 SW 1016,6 13 3 0,2
15.08.2018 11:00:00 18,8 17,1 18,4 19 10 27 15 SW 1016,5 4,1 0 0,2
15.08.2018 10:00:00 19,1 16,5 20,7 13 7 20 11 SW 1016,1 38 0 0,0
15.08.2018 09:00:00 19,0 15,9 19,7 14 8 19 11 WSW 1015,6 37 0 0,0
15.08.2018 08:00:00 18,5 16,1 18,5 13 7 17 9 SW 1015,3 35 0 0,0
15.08.2018 07:00:00 18,3 15,7 17,7 14 8 24 13 WSW 1015,1 40 0 0,0
15.08.2018 06:00:00 17,9 15,4 16,5 17 9 27 15 W 1015,0 43 0 0,0
15.08.2018 05:00:00 18,0 15,5 16,6 22 12 31 17 W 1015,1 41 0 0,0
15.08.2018 04:00:00 18,1 15,7 17,2 21 11 24 13 W 1015,1 42 0 0,0
15.08.2018 03:00:00 18,2 15,4 17,6 18 10 27 15 W 1014,9 41 0 0,0
15.08.2018 02:00:00 18,2 15,0 17,5 19 11 28 15 W 1015,1 38 0 0,0
15.08.2018 01:00:00 18,2 14,7 17,7 22 12 30 16 W 1015,0 37 0 0,0
15.08.2018 00:00:00 18,1 14,7 17,2 19 10 32 17 WNW 1014,8 39 0 0,0
14.08.2018 23:00:00 18,2 13,8 17,4 28 15 37 20 WNW 1014,7 46 0 0,0
14.08.2018 22:00:00 18,2 13,6 17,4 30 16 42 23 WNW 1014,6 48 0 0,0
14.08.2018 21:00:00 18,1 13,7 17,4 32 18 44 24 WNW 1013,8 49 0 0,0
14.08.2018 20:00:00 18,5 15,2 18,8 31 17 45 25 WNW 1013,1 40 0 0,0
14.08.2018 19:00:00 18,6 15,9 18,9 37 20 49 26 WNW 1012,5 28 4 0,0
14.08.2018 18:00:00 18,9 16,2 21,4 37 20 52 28 WNW 1011,9 27 11 0,0
14.08.2018 17:00:00 19,2 17,0 23,2 32 17 41 22 WNW 1011,3 34 13 0,0
14.08.2018 16:00:00 19,7 17,1 22,5 26 14 31 17 W 1010,9 28 5 0,0
14.08.2018 15:00:00 20,2 17,5 27,2 23 12 30 16 W 1010,3 47 60 0,0
14.08.2018 14:00:00 20,1 17,0 26,7 23 12 29 16 W 1009,7 71 60 0,0
14.08.2018 13:00:00 19,9 17,2 25,8 22 12 27 14 W 1009,2 48 60 0,0
14.08.2018 12:00:00 19,6 17,0 24,9 21 11 25 13 WNW 1008,5 63 59 0,0
14.08.2018 11:00:00 19,2 17,0 23,5 18 10 21 11 W 1008,0 56 60 0,0
14.08.2018 10:00:00 18,9 17,0 21,5 12 6 18 10 W 1007,4 51 34 0,0
14.08.2018 09:00:00 18,4 16,6 19,0 14 8 16 9 WNW 1007,0 41 54 0,0
14.08.2018 08:00:00 18,2 16,2 18,3 12 7 16 9 WNW 1006,3 42 33 0,0
14.08.2018 07:00:00 17,9 16,4 17,1 11 6 16 8 WNW 1005,7 35 0 0,0
14.08.2018 06:00:00 17,9 16,4 16,4 15 8 23 13 W 1005,5 40 0 0,0
14.08.2018 05:00:00 18,1 16,3 16,9 19 10 28 15 W 1005,4 33 0 0,0
14.08.2018 04:00:00 18,1 17,0 17,5 22 12 29 16 W 1005,2 25 0 0,0
14.08.2018 03:00:00 18,0 16,7 17,3 24 13 29 16 W 1005,0 24 0 0,0
14.08.2018 02:00:00 18,0 16,2 16,8 22 12 30 16 W 1005,1 27 0 0,0
14.08.2018 01:00:00 18,0 16,4 17,1 23 12 29 16 W 1004,9 22 0 0,5
14.08.2018 00:00:00 17,0 15,0 15,9 11 6 16 9 W 1004,7 10 0 0,2
13.08.2018 23:00:00 17,5 15,5 16,6 11 6 15 8 W 1004,5 19 0 0,0
13.08.2018 22:00:00 17,6 15,7 16,6 10 5 13 7 S 1004,2 12 0 0,1
13.08.2018 21:00:00 17,6 15,7 16,6 10 6 22 12 ESE 1003,8 14 0 0,2
13.08.2018 20:00:00 17,7 15,2 16,7 19 11 24 13 ESE 1004,1 20 0 0,2
13.08.2018 19:00:00 16,9 15,0 16,7 13 7 33 18 E 1003,9 7 0 11,1
13.08.2018 18:00:00 19,3 16,4 19,5 13 7 26 14 E 1003,9 19 1 0,0
13.08.2018 17:00:00 19,9 16,0 23,2 21 11 26 14 ESE 1004,2 26 17 0,0
13.08.2018 16:00:00 19,7 15,8 22,0 16 9 29 15 ESE 1004,4 24 0 0,0
13.08.2018 15:00:00 19,3 15,4 18,7 23 13 39 21 SSE 1005,2 23 0 0,1
13.08.2018 14:00:00 19,2 15,2 19,8 16 9 25 14 SSE 1005,5 45 0 0,0
13.08.2018 13:00:00 19,5 16,4 20,5 16 9 31 17 ESE 1005,4 28 0 0,0
13.08.2018 12:00:00 19,7 15,0 21,0 20 11 26 14 E 1005,3 34 0 0,0
13.08.2018 11:00:00 19,5 14,9 20,6 21 11 27 15 SSE 1006,0 40 0 0,0
13.08.2018 10:00:00 19,6 16,2 20,3 22 12 25 14 SE 1005,8 50 0 0,0
13.08.2018 09:00:00 19,4 16,9 19,2 19 10 26 14 SE 1006,2 29 0 0,0
13.08.2018 08:00:00 19,3 16,3 18,8 25 13 28 15 ESE 1006,1 29 0 0,0
13.08.2018 07:00:00 19,2 16,5 18,3 24 13 27 14 ESE 1006,0 15 0 0,1
13.08.2018 06:00:00 19,1 16,5 17,8 22 12 25 14 SE 1006,7 15 0 0,0
13.08.2018 05:00:00 19,0 16,7 18,2 16 9 20 11 SE 1007,2 19 0 0,0
13.08.2018 04:00:00 19,4 15,6 18,3 17 9 19 11 SSE 1007,6 51 0 0,0
13.08.2018 03:00:00 19,2 15,7 18,3 17 9 20 11 SSE 1008,0 62 0 0,0
13.08.2018 02:00:00 18,9 16,6 17,9 14 7 15 8 SSE 1008,7 40 0 0,0
13.08.2018 01:00:00 19,2 16,4 17,8 13 7 18 10 S 1009,1 44 0 0,0
13.08.2018 00:00:00 19,1 16,3 18,0 13 7 15 8 S 1009,5 37 0 0,0
12.08.2018 23:00:00 19,3 16,0 18,5 14 8 22 12 WSW 1009,8 42 0 0,0
12.08.2018 22:00:00 19,6 16,3 18,2 17 9 22 12 SSW 1010,1 34 0 0,0
12.08.2018 21:00:00 19,7 16,2 18,3 18 10 22 12 SW 1010,2 33 0 0,0
12.08.2018 20:00:00 20,0 15,9 19,8 17 9 27 14 SW 1010,2 34 0 0,0
12.08.2018 19:00:00 20,1 15,8 19,9 18 10 28 15 SW 1010,9 34 0 0,0
12.08.2018 18:00:00 20,3 15,7 21,0 25 13 30 16 SSW 1011,0 36 6 0,0
12.08.2018 17:00:00 19,6 15,5 22,3 24 13 34 18 S 1011,6 30 0 0,0
12.08.2018 16:00:00 18,9 14,3 21,5 29 16 35 19 S 1012,4 28 0 0,0
12.08.2018 15:00:00 17,6 13,5 18,6 29 16 35 19 S 1013,3 31 0 0,0
12.08.2018 14:00:00 16,2 12,4 16,2 19 10 30 16 S 1014,2 13 0 0,0
12.08.2018 13:00:00 15,6 11,8 15,0 22 12 40 22 SSW 1015,0 10 0 0,0
12.08.2018 12:00:00 16,8 11,3 16,2 23 12 31 17 S 1015,2 22 0 0,0
12.08.2018 11:00:00 17,3 11,7 18,9 26 14 34 18 SSW 1015,6 37 0 0,0
12.08.2018 10:00:00 17,1 11,3 19,4 29 16 37 20 SSW 1015,8 40 7 0,0
12.08.2018 09:00:00 16,8 11,5 17,4 32 18 38 21 SW 1016,1 54 13 0,0
12.08.2018 08:00:00 17,0 12,0 16,9 32 18 39 21 SW 1016,2 49 0 0,0
12.08.2018 07:00:00 17,3 10,8 16,6 18 10 26 14 WSW 1016,5 66 0 0,0
12.08.2018 06:00:00 17,0 10,3 15,8 22 12 29 16 W 1016,7 59 0 0,0
12.08.2018 05:00:00 17,1 10,6 16,2 25 14 32 17 W 1017,1 63 0 0,0
12.08.2018 04:00:00 17,0 11,3 15,7 24 13 31 17 W 1017,5 57 0 0,0
12.08.2018 03:00:00 17,0 11,0 15,9 21 12 31 17 W 1017,9 55 0 0,0
12.08.2018 02:00:00 16,8 11,0 15,7 23 13 34 19 W 1018,3 43 0 0,0
12.08.2018 01:00:00 17,0 11,7 15,7 26 14 38 21 W 1019,0 40 0 0,0
12.08.2018 00:00:00 17,0 12,1 15,8 27 14 50 27 W 1019,3 42 0 0,0
11.08.2018 23:00:00 17,5 11,7 16,9 29 16 34 19 W 1019,5 47 0 0,0
11.08.2018 22:00:00 17,5 11,6 15,8 26 14 37 20 W 1019,4 45 0 0,0
11.08.2018 21:00:00 17,7 11,2 16,4 29 16 40 22 W 1019,3 45 19 0,0
11.08.2018 20:00:00 18,0 10,7 18,6 33 18 44 24 W 1019,2 51 59 0,0
11.08.2018 19:00:00 18,1 11,2 20,4 37 20 45 25 WNW 1019,3 40 60 0,0
11.08.2018 18:00:00 17,8 10,6 20,7 36 19 48 26 WNW 1018,9 38 60 0,0
11.08.2018 17:00:00 18,1 11,3 22,5 36 20 49 26 WNW 1018,7 33 59 0,0
11.08.2018 16:00:00 17,9 11,7 21,0 39 21 53 29 WNW 1018,3 42 55 0,0
11.08.2018 15:00:00 17,8 12,6 20,8 45 24 54 29 WNW 1017,9 31 58 0,0
11.08.2018 14:00:00 17,0 10,4 21,3 44 24 60 32 W 1017,5 32 39 0,1
11.08.2018 13:00:00 17,4 11,3 20,5 45 24 60 33 W 1016,8 42 34 0,0
11.08.2018 12:00:00 17,2 11,5 18,1 44 24 53 29 WNW 1016,3 32 15 0,0
11.08.2018 11:00:00 14,8 11,7 14,2 33 18 55 30 W 1016,0 23 0 0,8
11.08.2018 10:00:00 14,2 10,8 13,0 37 20 53 29 W 1015,3 20 2 0,5
11.08.2018 09:00:00 15,5 11,5 14,1 35 19 52 28 WSW 1015,0 25 14 0,1
11.08.2018 08:00:00 16,4 11,0 15,4 29 16 52 28 WSW 1014,7 38 3 0,0
11.08.2018 07:00:00 15,1 11,6 13,7 45 24 56 30 SSW 1014,5 20 0 1,3
11.08.2018 06:00:00 15,5 12,6 14,2 41 22 72 39 SSW 1014,2 25 0 1,5
11.08.2018 05:00:00 15,3 13,2 14,1 47 25 60 33 SW 1014,8 6 0 0,1
11.08.2018 04:00:00 15,5 11,5 13,8 47 25 60 33 SSW 1014,8 32 0 0,1
11.08.2018 03:00:00 16,1 11,7 14,0 38 21 67 36 SW 1015,2 22 0 0,3
11.08.2018 02:00:00 16,7 12,5 14,7 54 29 68 37 SSW 1015,4 22 0 0,0
11.08.2018 01:00:00 16,3 13,0 14,8 42 23 72 39 SSW 1016,3 25 0 2,7
11.08.2018 00:00:00 18,1 13,1 17,6 41 22 48 26 SSE 1016,0 39 0 0,0
10.08.2018 23:00:00 17,8 13,1 17,0 30 16 36 19 S 1017,0 39 0 0,0
10.08.2018 22:00:00 17,6 12,4 16,6 27 14 32 17 S 1018,0 40 0 0,0
10.08.2018 21:00:00 17,1 12,4 15,6 23 13 30 16 SSW 1018,4 31 15 0,0
10.08.2018 20:00:00 17,4 12,4 17,9 25 14 39 21 SSW 1018,5 38 41 0,0
10.08.2018 19:00:00 17,8 12,0 19,5 35 19 49 26 SSW 1018,7 45 31 0,0
10.08.2018 18:00:00 18,2 10,7 20,0 32 17 56 30 SW 1019,0 57 2 0,0
10.08.2018 17:00:00 17,6 12,0 18,2 46 25 55 30 SW 1019,2 35 3 0,0
10.08.2018 16:00:00 17,5 12,0 16,8 29 16 58 31 SW 1019,0 30 13 0,4
10.08.2018 15:00:00 18,7 12,1 21,0 31 17 43 23 SW 1018,7 40 31 0,0
10.08.2018 14:00:00 17,5 11,3 20,7 19 10 42 23 W 1018,8 - 38 0,2
10.08.2018 13:00:00 16,2 12,5 15,5 29 16 61 33 W 1018,5 30 0 0,9

tt = temperature
td = dewpoint
tt 5cm = temperature 5cm
ff = wind speed
fx = gusts
dd = wind direction
ppp = reduced air pressure
vv = visibility
sd = sunshine duration
rr = precipitation

Next stations